SWARM C

Last updated on Mon Oct 20 2025 00:03:35 GMT+0000 (Coordinated Universal Time)

1 39453U 13067C 25292.30597731 .00018147 00000+0 38505-3 0 9990 2 39453 87.3380 143.8717 0002903 85.2596 274.8993 15.44923112668942
UTC large
Height (km)
Speed (km/s)
/
Latitude / Longitude
Inclination (degrees)
Orbital Period (minutes)
Azimuth
Elevation
Range (km)
Doppler Factor

Next 0 passes for location: London (51.5072 / 0.1276)

Sorry there are no passes over London.